KF5FGL Weather Reports


Display with metric or nautical units.
time (UTC)temp
F
wind
direction
speed
MPH
gust
MPH
rain 1hr
in
rain 24hr
in
rain mn
in
humidity
%
barometer
mb
20260905061531 82 135 0.0 4.0 0.00 0.00 0.00 81 1012.2
20260905060024 81 166 2.0 7.0 0.00 0.00 0.00 82 1012.2
20260905054536 81 150 1.0 5.0 0.00 0.00 0.00 80 1012.2
20260905053019 83 170 0.0 2.0 0.00 0.00 0.00 77 1012.2
20260905051508 82 125 0.0 5.0 0.00 0.00 0.00 79 1012.2
20260905050026 83 123 1.0 5.0 0.00 0.00 0.00 74 1012.2
20260905044514 85 129 1.0 5.0 0.00 0.00 0.00 71 1012.1
20260905043003 83 99 0.0 10.0 0.00 0.00 0.00 71 1012.1
20260905041524 85 133 1.0 6.0 0.00 0.00 0.00 67 1012.2
20260905040014 86 118 1.0 4.0 0.00 0.00 0.00 66 1012.0
20260905034618 86 104 0.0 7.0 0.00 0.00 0.00 66 1012.1
20260905033049 84 141 1.0 6.0 0.00 0.00 0.00 68 1011.9
20260905031513 86 153 1.0 6.0 0.00 0.00 0.00 64 1011.6
20260905030047 86 104 0.0 5.0 0.00 0.00 0.00 66 1011.7
20260905024520 85 113 2.0 7.0 0.00 0.00 0.00 67 1011.3
20260905023010 86 121 1.0 7.0 0.00 0.00 0.00 65 1011.2
20260905021529 87 110 0.0 3.0 0.00 0.00 0.00 65 1010.9
20260905020020 85 108 0.0 5.0 0.00 0.00 0.00 67 1010.9
20260905014506 86 93 0.0 7.0 0.00 0.00 0.00 65 1010.8
20260905013026 88 127 1.0 5.0 0.00 0.00 0.00 62 1010.6
20260905011515 87 89 3.0 7.0 0.00 0.00 0.00 63 1010.5
20260905010005 88 133 0.0 2.0 0.00 0.00 0.00 59 1010.4
20260905004526 89 141 0.0 2.0 0.00 0.00 0.00 58 1010.3
20260905003014 90 133 0.0 3.0 0.00 0.00 0.00 57 1010.0
20260905001502 91 98 0.0 4.0 0.00 0.00 0.00 56 1009.8
20260905000022 92 119 2.0 10.0 0.00 0.00 0.00 55 1009.7
20260904234510 92 144 1.0 5.0 0.00 0.00 0.00 56 1009.7
20260904233101 92 125 3.0 8.0 0.00 0.00 0.00 57 1009.6
20260904231518 92 98 2.0 7.0 0.00 0.00 0.00 57 1009.7
20260904230007 92 112 2.0 6.0 0.00 0.00 0.00 57 1009.8
20260904224525 90 125 0.0 5.0 0.00 0.00 0.00 57 1009.8
20260904223014 90 37 0.0 7.0 0.00 0.00 0.00 58 1009.9
20260904221606 90 108 0.0 3.0 0.00 0.00 0.00 60 1010.0
20260904220020 90 109 0.0 5.0 0.00 0.00 0.00 57 1010.2
20260904214505 89 139 1.0 6.0 0.00 0.00 0.00 61 1010.5
20260904213030 90 114 0.0 4.0 0.00 0.00 0.00 63 1010.6
20260904211512 89 109 2.0 8.0 0.00 0.00 0.00 62 1010.8
20260904210001 89 183 0.0 4.0 0.00 0.00 0.00 64 1011.0
20260904204529 88 60 0.0 3.0 0.00 0.00 0.00 66 1011.1
20260904203015 88 79 1.0 5.0 0.00 0.00 0.00 67 1011.3
20260904201527 87 97 2.0 5.0 0.00 0.00 0.00 67 1011.4
20260904200016 87 108 1.0 3.0 0.00 0.00 0.00 69 1011.5
20260904194502 86 69 1.0 4.0 0.00 0.00 0.00 72 1011.5
20260904193027 86 141 0.0 7.0 0.00 0.00 0.00 73 1011.7
20260904191511 86 101 1.0 3.0 0.00 0.00 0.00 73 1011.8
20260904190002 86 75 0.0 5.0 0.00 0.00 0.00 75 1012.0
20260904184521 85 122 1.0 7.0 0.00 0.00 0.00 75 1012.1
20260904183009 85 111 1.0 5.0 0.00 0.00 0.00 75 1012.2
20260904181534 86 118 2.0 4.0 0.00 0.00 0.00 74 1012.3
20260904180021 86 205 1.0 6.0 0.00 0.00 0.00 74 1012.4
20260904174507 86 140 0.0 6.0 0.00 0.00 0.00 73 1012.5
20260904173010 86 170 0.0 9.0 0.00 0.00 0.00 73 1012.7
20260904171524 86 168 0.0 4.0 0.00 0.00 0.00 73 1012.9
20260904170011 85 196 2.0 6.0 0.00 0.00 0.00 77 1013.0
20260904164621 85 60 1.0 5.0 0.00 0.00 0.00 78 1013.1
20260904163018 86 125 0.0 3.0 0.00 0.00 0.00 79 1013.2
20260904161504 83 95 1.0 5.0 0.00 0.00 0.00 82 1013.1
20260904160026 83 173 0.0 3.0 0.00 0.00 0.00 81 1013.1
20260904154512 82 172 0.0 4.0 0.00 0.00 0.00 82 1013.0
20260904153052 82 100 0.0 4.0 0.00 0.00 0.00 82 1012.9
20260904151518 82 189 1.0 5.0 0.00 0.00 0.00 83 1012.8
20260904150006 82 192 0.0 6.0 0.00 0.00 0.00 83 1012.7
20260904144525 81 169 2.0 7.0 0.00 0.00 0.00 84 1012.8
20260904143020 81 135 1.0 7.0 0.00 0.00 0.00 84 1012.6
20260904141531 80 135 0.0 4.0 0.00 0.00 0.00 84 1012.7
20260904140031 80 171 0.0 5.0 0.00 0.00 0.00 83 1012.7
20260904134506 80 191 0.0 5.0 0.00 0.00 0.00 83 1012.5
20260904133025 79 128 1.0 5.0 0.00 0.00 0.00 82 1012.5
20260904131533 79 92 1.0 5.0 0.00 0.00 0.00 82 1012.4
20260904130030 78 126 1.0 5.0 0.00 0.00 0.00 82 1012.2
20260904124516 78 111 1.0 4.0 0.00 0.00 0.00 82 1012.1
20260904123003 78 99 1.0 4.0 0.00 0.00 0.00 82 1011.9
20260904121517 78 121 0.0 2.0 0.00 0.00 0.00 82 1012.0
20260904120003 78 128 1.0 3.0 0.00 0.00 0.00 82 1011.7
20260904114524 78 129 0.0 3.0 0.00 0.00 0.00 82 1011.5
20260904113031 78 123 0.0 4.0 0.00 0.00 0.00 83 1011.3
20260904111501 78 100 1.0 3.0 0.00 0.00 0.00 83 1011.2
20260904110022 79 158 0.0 4.0 0.00 0.00 0.00 83 1011.3
20260904104511 79 110 0.0 2.0 0.00 0.00 0.00 83 1011.2
20260904103030 80 142 0.0 4.0 0.00 0.00 0.00 84 1011.0
20260904101521 80 150 0.0 2.0 0.00 0.00 0.00 84 1010.9
20260904100008 79 162 0.0 2.0 0.00 0.00 0.00 84 1011.0
20260904094534 80 150 0.0 2.0 0.00 0.00 0.00 83 1011.0
20260904093018 79 148 0.0 3.0 0.00 0.00 0.00 83 1010.8
20260904091506 79 158 0.0 2.0 0.00 0.00 0.00 84 1010.8
20260904090027 80 166 0.0 2.0 0.00 0.00 0.00 84 1010.8
20260904084515 80 175 0.0 1.0 0.00 0.00 0.00 84 1010.9
20260904083039 79 191 0.0 3.0 0.00 0.00 0.00 84 1010.8
20260904081518 80 172 0.0 1.0 0.00 0.00 0.00 83 1010.9
20260904080006 81 154 0.0 1.0 0.00 0.00 0.00 83 1011.0
20260904074525 80 171 0.0 4.0 0.00 0.00 0.00 84 1011.1
20260904073010 81 222 0.0 2.0 0.00 0.00 0.00 82 1011.2
20260904071529 81 144 0.0 6.0 0.00 0.00 0.00 83 1011.4
20260904070017 81 114 0.0 6.0 0.00 0.00 0.00 82 1011.4
20260904064508 82 141 1.0 5.0 0.00 0.00 0.00 81 1011.4
20260904063025 81 214 0.0 8.0 0.00 0.00 0.00 82 1011.5